Location: Bédeille
(43.0872°N, 1.1041°E)
Time: 01:54:56
(UTC+00:00)

Tiangong - Visible Passes

Search period start: 29 May 2023 00:00
Search period end: 08 June 2023 00:00
Orbit: 387 x 392 km, 41.5° (Epoch: 28 May)

Date Brightness Start Highest point End Pass type
(mag) Time Alt. Az. Time Alt. Az. Time Alt. Az.
31 May 0.4 03:26:32 10° S 03:27:56 12° SSE 03:29:23 10° ESE visible
02 Jun -0.3 03:06:46 14° SSW 03:08:25 20° SSE 03:10:54 10° ESE visible
03 Jun 0.3 02:11:11 13° SE 02:11:11 13° SE 02:12:11 10° ESE visible
04 Jun -1.1 02:47:51 24° SSW 02:48:57 31° SSE 02:51:51 10° E visible
05 Jun 0.0 01:52:13 18° ESE 01:52:13 18° ESE 01:53:32 10° ESE visible
05 Jun -1.9 03:24:31 10° WSW 03:27:36 57° S 03:30:47 10° E visible
06 Jun -1.7 02:28:52 38° SSW 02:29:33 45° SSE 02:32:39 10° E visible
07 Jun 0.0 01:33:15 19° ESE 01:33:15 19° ESE 01:34:29 10° E visible
07 Jun -2.1 03:05:32 13° W 03:08:16 66° S 03:11:28 10° E visible
